User: anonymous   Login
Location: Unspecified
(0.0000°N, 0.0000°E)
Time: 08:08:21
(UTC+02:00)
Language:

Cosmos 1758 - Orbit

View from above orbital plane
View from above orbital plane
View from above satellite
View from above satellite

Ground track
Ground track

The orbit data is extracted from the following two-line orbital elements,

1 16791U 86046A   16121.36697552  .00000851  00000-0  59391-4 0  9997
2 16791  82.4712  74.1453 0018177  56.4715 303.8244 15.03950731623623
Epoch (UTC): 30 April 2016 08:48:26
Eccentricity: 0.0018177
inclination: 82.4712°
perigee height: 542 km
apogee height: 567 km
right ascension of ascending node: 74.1453°
argument of perigee: 56.4715°
revolutions per day: 15.03950731
mean anomaly at epoch: 303.8244°
orbit number at epoch: 62362

The dashed part of the orbit path shows where the satellite is in the earth's shadow,  

DLR